When you browse on this site, cookies collect data to enhance your experience and personalize the content and advertising you see.
Visit our Privacy Policy to learn more. By continuing to use the site, you agree to this use of cookies and data.
  • In Czech Republic
  • List of Countries
  • For 7 days
  • Water Temperature
  • Weather Map
  • Weather Widgets
  • user-avatar
    Login

    Hourly Weather Wurzburg

    Today, 18 February, Tuesday

    Time Temperature Precipitation Wind Pressure Humidity
    00:00 +4°C° 0.1 mm 6 mps 748 mmHg 84%
    01:00 +5°C° 0 mm 5 mps 748 mmHg 84%
    02:00 +4°C° 0 mm 6 mps 749 mmHg 84%
    03:00 +4°C° 0 mm 6 mps 749 mmHg 84%
    04:00 +3°C° 0 mm 7 mps 749 mmHg 83%
    05:00 +3°C° 0.1 mm 7 mps 749 mmHg 85%
    06:00 +3°C° 0.1 mm 7 mps 750 mmHg 86%
    07:00 +3°C° 0.1 mm 7 mps 750 mmHg 87%
    08:00 +3°C° 0.1 mm 7 mps 751 mmHg 83%
    09:00 +4°C° 0.1 mm 7 mps 751 mmHg 79%
    10:00 +4°C° 0.1 mm 7 mps 752 mmHg 76%
    11:00 +4°C° 0.1 mm 7 mps 752 mmHg 76%
    12:00 +4°C° 0.1 mm 7 mps 752 mmHg 76%
    13:00 +4°C° 0.1 mm 7 mps 751 mmHg 76%
    14:00 +4°C° 0 mm 6 mps 751 mmHg 76%
    15:00 +4°C° 0 mm 6 mps 751 mmHg 75%
    16:00 +4°C° 0 mm 6 mps 751 mmHg 75%
    17:00 +3°C° 0 mm 5 mps 751 mmHg 77%
    18:00 +4°C° 0 mm 4 mps 750 mmHg 79%
    19:00 +3°C° 0 mm 4 mps 750 mmHg 81%
    20:00 +3°C° 0 mm 4 mps 750 mmHg 82%
    21:00 +3°C° 0 mm 4 mps 750 mmHg 82%
    22:00 +3°C° 0 mm 4 mps 750 mmHg 83%
    23:00 +2°C° 0 mm 5 mps 749 mmHg 84%

    Tomorrow, 19 February, Wednesday

    Time Temperature Precipitation Wind Pressure Humidity
    00:00 +2°C° 0 mm 5 mps 748 mmHg 84%
    01:00 +2°C° 0 mm 5 mps 748 mmHg 84%
    02:00 +2°C° 0 mm 6 mps 747 mmHg 85%
    03:00 +3°C° 0 mm 6 mps 746 mmHg 86%
    04:00 +3°C° 0 mm 6 mps 745 mmHg 87%
    05:00 +3°C° 0.3 mm 7 mps 745 mmHg 88%
    06:00 +3°C° 0.3 mm 7 mps 745 mmHg 90%
    07:00 +2°C° 0.3 mm 8 mps 744 mmHg 91%
    08:00 +2°C° 0.7 mm 7 mps 745 mmHg 89%
    09:00 +2°C° 0.7 mm 7 mps 745 mmHg 86%
    10:00 +2°C° 0.7 mm 7 mps 746 mmHg 84%
    11:00 +3°C° 0.2 mm 7 mps 746 mmHg 76%
    12:00 +3°C° 0.2 mm 7 mps 747 mmHg 69%
    13:00 +4°C° 0.2 mm 7 mps 748 mmHg 62%
    14:00 +4°C° 0.1 mm 7 mps 748 mmHg 62%
    15:00 +4°C° 0.1 mm 7 mps 748 mmHg 62%
    16:00 +4°C° 0.1 mm 6 mps 749 mmHg 62%
    17:00 +3°C° 0 mm 5 mps 749 mmHg 67%
    18:00 +3°C° 0 mm 4 mps 750 mmHg 72%
    19:00 +2°C° 0 mm 3 mps 750 mmHg 77%
    20:00 +1°C° 0 mm 3 mps 750 mmHg 79%
    21:00 +1°C° 0 mm 3 mps 750 mmHg 81%
    22:00 +1°C° 0 mm 3 mps 750 mmHg 83%
    23:00 +1°C° 0 mm 3 mps 750 mmHg 84%

    Day after tomorrow, 20 February, Thursday

    Time Temperature Precipitation Wind Pressure Humidity
    00:00 +1°C° 0 mm 3 mps 750 mmHg 85%
    01:00 0°C° 0 mm 4 mps 750 mmHg 86%
    02:00 0°C° 0 mm 4 mps 749 mmHg 88%
    03:00 0°C° 0 mm 4 mps 749 mmHg 90%
    04:00 0°C° 0 mm 4 mps 748 mmHg 92%
    05:00 +1°C° 0 mm 4 mps 748 mmHg 92%
    06:00 +1°C° 0 mm 4 mps 748 mmHg 92%
    07:00 +3°C° 0 mm 4 mps 748 mmHg 91%
    08:00 +3°C° 0 mm 4 mps 748 mmHg 90%
    09:00 +4°C° 0 mm 4 mps 748 mmHg 88%
    10:00 +4°C° 0 mm 4 mps 748 mmHg 86%
    11:00 +5°C° 0 mm 4 mps 747 mmHg 84%
    12:00 +6°C° 0 mm 4 mps 747 mmHg 81%
    13:00 +7°C° 0 mm 4 mps 747 mmHg 79%
    14:00 +7°C° 0 mm 4 mps 746 mmHg 79%
    15:00 +7°C° 0 mm 4 mps 746 mmHg 79%
    16:00 +7°C° 0 mm 3 mps 745 mmHg 79%
    17:00 +7°C° 0 mm 3 mps 745 mmHg 80%
    18:00 +7°C° 0 mm 3 mps 745 mmHg 80%
    19:00 +7°C° 0 mm 3 mps 745 mmHg 81%
    20:00 +6°C° 0 mm 4 mps 744 mmHg 81%
    21:00 +6°C° 0 mm 4 mps 744 mmHg 82%
    22:00 +6°C° 0 mm 4 mps 744 mmHg 82%
    23:00 +5°C° 0.1 mm 6 mps 744 mmHg 82%

    21 February, Friday

    Time Temperature Precipitation Wind Pressure Humidity
    00:00 +5°C° 0.1 mm 7 mps 744 mmHg 83%
    01:00 +5°C° 0.1 mm 8 mps 744 mmHg 84%
    02:00 +4°C° 0.4 mm 8 mps 745 mmHg 82%
    03:00 +2°C° 0.4 mm 8 mps 746 mmHg 80%
    04:00 +1°C° 0.4 mm 9 mps 747 mmHg 78%
    05:00 0°C° 0 mm 7 mps 749 mmHg 77%
    06:00 +1°C° 0 mm 6 mps 750 mmHg 77%
    07:00 0°C° 0 mm 5 mps 751 mmHg 76%
    14:00 +4°C° 0 mm 6 mps 755 mmHg 62%
    15:00 +4°C° 0 mm 6 mps 755 mmHg 62%
    16:00 +5°C° 0 mm 5 mps 755 mmHg 62%
    17:00 +3°C° 0 mm 5 mps 755 mmHg 67%
    18:00 +3°C° 0 mm 4 mps 755 mmHg 72%
    19:00 +2°C° 0 mm 3 mps 755 mmHg 77%
    20:00 +2°C° 0 mm 3 mps 755 mmHg 78%
    21:00 +2°C° 0 mm 3 mps 755 mmHg 79%
    22:00 +2°C° 0 mm 3 mps 756 mmHg 80%
    23:00 +1°C° 0 mm 4 mps 755 mmHg 81%

    22 February, Saturday

    Time Temperature Precipitation Wind Pressure Humidity
    00:00 +1°C° 0 mm 4 mps 755 mmHg 83%
    01:00 +1°C° 0 mm 4 mps 755 mmHg 84%
    02:00 +1°C° 0 mm 4 mps 755 mmHg 84%
    03:00 0°C° 0 mm 5 mps 755 mmHg 85%
    04:00 0°C° 0 mm 5 mps 754 mmHg 85%
    05:00 0°C° 0 mm 5 mps 754 mmHg 85%
    06:00 0°C° 0 mm 5 mps 754 mmHg 85%
    07:00 0°C° 0 mm 4 mps 754 mmHg 85%
    08:00 +1°C° 0 mm 5 mps 754 mmHg 81%
    09:00 +2°C° 0 mm 6 mps 754 mmHg 77%
    10:00 +3°C° 0 mm 7 mps 754 mmHg 74%
    11:00 +4°C° 0 mm 7 mps 754 mmHg 70%
    12:00 +5°C° 0 mm 7 mps 753 mmHg 66%
    13:00 +6°C° 0 mm 7 mps 753 mmHg 62%
    14:00 +6°C° 0 mm 7 mps 753 mmHg 62%
    15:00 +6°C° 0 mm 7 mps 752 mmHg 61%
    16:00 +8°C° 0 mm 6 mps 752 mmHg 61%
    17:00 +7°C° 0 mm 6 mps 752 mmHg 63%
    18:00 +7°C° 0 mm 6 mps 752 mmHg 65%
    19:00 +5°C° 0 mm 6 mps 752 mmHg 68%
    20:00 +5°C° 0 mm 7 mps 752 mmHg 69%
    21:00 +5°C° 0 mm 7 mps 752 mmHg 70%
    22:00 +5°C° 0 mm 8 mps 752 mmHg 71%
    23:00 +5°C° 0 mm 8 mps 752 mmHg 73%

    23 February, Sunday

    Time Temperature Precipitation Wind Pressure Humidity
    00:00 +5°C° 0 mm 8 mps 752 mmHg 74%
    01:00 +5°C° 0 mm 8 mps 752 mmHg 76%
    02:00 +5°C° 0 mm 8 mps 752 mmHg 78%
    03:00 +6°C° 0 mm 8 mps 752 mmHg 79%
    04:00 +6°C° 0 mm 8 mps 751 mmHg 80%
    05:00 +6°C° 0 mm 8 mps 752 mmHg 81%
    06:00 +6°C° 0 mm 8 mps 752 mmHg 82%
    07:00 +6°C° 0 mm 8 mps 752 mmHg 83%
    08:00 +6°C° 0 mm 8 mps 752 mmHg 83%
    09:00 +6°C° 0 mm 8 mps 752 mmHg 84%
    10:00 +6°C° 0 mm 8 mps 752 mmHg 84%
    11:00 +6°C° 0.1 mm 8 mps 752 mmHg 84%
    12:00 +7°C° 0.1 mm 8 mps 752 mmHg 85%
    13:00 +7°C° 0.1 mm 8 mps 752 mmHg 85%
    14:00 +9°C° 0 mm 7 mps 751 mmHg 83%
    15:00 +9°C° 0 mm 7 mps 751 mmHg 82%
    16:00 +10°C° 0 mm 7 mps 751 mmHg 80%
    17:00 +10°C° 0 mm 7 mps 751 mmHg 81%
    18:00 +10°C° 0 mm 7 mps 751 mmHg 83%
    19:00 +9°C° 0 mm 7 mps 751 mmHg 84%
    20:00 +9°C° 0 mm 7 mps 751 mmHg 85%
    21:00 +9°C° 0 mm 7 mps 751 mmHg 86%
    22:00 +8°C° 0 mm 6 mps 751 mmHg 87%
    23:00 +8°C° 0 mm 7 mps 751 mmHg 88%
    Show more